| time (UTC) | temp F | wind direction | speed MPH | gust MPH | rain 1hr in | rain 24hr in | rain mn in | humidity % | barometer mb |
| 20260507124003 | 40 | 270 | 14.0 | 20.0 | 0.00 | 0.04 | 0.00 | 80 | 1007.8 |
| 20260507123503 | 40 | 267 | 14.0 | 20.0 | 0.00 | 0.05 | 0.00 | 80 | 1007.9 |
| 20260507123003 | 39 | 266 | 15.0 | 20.0 | 0.00 | 0.05 | 0.00 | 80 | 1008.0 |
| 20260507122718 | 39 | 266 | 15.0 | 20.0 | 0.00 | 0.05 | 0.00 | 81 | 1008.0 |
| 20260507122004 | 39 | 268 | 15.0 | 20.0 | 0.00 | 0.06 | 0.00 | 81 | 1008.2 |
| 20260507121503 | 39 | 274 | 15.0 | 22.0 | 0.00 | 0.06 | 0.00 | 81 | 1008.2 |
| 20260507121003 | 39 | 275 | 15.0 | 22.0 | 0.00 | 0.06 | 0.00 | 81 | 1008.2 |
| 20260507120503 | 39 | 270 | 15.0 | 20.0 | 0.00 | 0.07 | 0.00 | 81 | 1008.1 |
| 20260507120004 | 39 | 267 | 16.0 | 23.0 | 0.00 | 0.07 | 0.00 | 81 | 1008.1 |
| 20260507115503 | 38 | 265 | 15.0 | 23.0 | 0.00 | 0.07 | 0.00 | 81 | 1008.1 |
| 20260507115003 | 38 | 266 | 15.0 | 20.0 | 0.00 | 0.08 | 0.00 | 81 | 1008.2 |
| 20260507114503 | 38 | 267 | 14.0 | 20.0 | 0.00 | 0.08 | 0.00 | 81 | 1008.4 |
| 20260507114003 | 38 | 264 | 15.0 | 20.0 | 0.00 | 0.08 | 0.00 | 81 | 1008.3 |
| 20260507113503 | 38 | 264 | 15.0 | 23.0 | 0.00 | 0.09 | 0.00 | 81 | 1008.4 |
| 20260507113003 | 38 | 264 | 15.0 | 23.0 | 0.00 | 0.09 | 0.00 | 81 | 1008.5 |
| 20260507112718 | 38 | 264 | 15.0 | 20.0 | 0.00 | 0.09 | 0.00 | 81 | 1008.4 |
| 20260507112003 | 38 | 270 | 15.0 | 21.0 | 0.00 | 0.10 | 0.00 | 81 | 1008.4 |
| 20260507111503 | 38 | 274 | 15.0 | 20.0 | 0.00 | 0.10 | 0.00 | 81 | 1008.4 |
| 20260507111003 | 38 | 276 | 14.0 | 19.0 | 0.00 | 0.11 | 0.00 | 81 | 1008.4 |
| 20260507110503 | 38 | 277 | 14.0 | 18.0 | 0.00 | 0.11 | 0.00 | 81 | 1008.5 |
| 20260507110003 | 38 | 275 | 14.0 | 18.0 | 0.00 | 0.11 | 0.00 | 81 | 1008.5 |
| 20260507105718 | 38 | 274 | 13.0 | 18.0 | 0.00 | 0.11 | 0.00 | 81 | 1008.5 |
| 20260507105003 | 38 | 271 | 14.0 | 18.0 | 0.00 | 0.12 | 0.00 | 81 | 1008.6 |
| 20260507104503 | 38 | 269 | 14.0 | 19.0 | 0.00 | 0.13 | 0.00 | 80 | 1008.9 |
| 20260507104217 | 38 | 270 | 14.0 | 19.0 | 0.00 | 0.13 | 0.00 | 80 | 1008.9 |
| 20260507103503 | 38 | 272 | 14.0 | 19.0 | 0.00 | 0.14 | 0.00 | 80 | 1009.0 |
| 20260507103003 | 38 | 270 | 14.0 | 19.0 | 0.00 | 0.15 | 0.00 | 80 | 1008.9 |
| 20260507102717 | 38 | 269 | 15.0 | 19.0 | 0.00 | 0.15 | 0.00 | 80 | 1008.9 |
| 20260507102003 | 38 | 268 | 14.0 | 19.0 | 0.00 | 0.15 | 0.00 | 81 | 1009.1 |
| 20260507101503 | 38 | 268 | 14.0 | 18.0 | 0.00 | 0.15 | 0.00 | 81 | 1009.2 |
| 20260507101431 | 38 | 268 | 14.0 | 18.0 | 0.00 | 0.15 | 0.00 | 81 | 1009.2 |
| 20260507100717 | 38 | 271 | 15.0 | 20.0 | 0.00 | 0.16 | 0.00 | 81 | 1009.4 |
| 20260507100003 | 38 | 268 | 15.0 | 20.0 | 0.00 | 0.16 | 0.00 | 81 | 1009.3 |
| 20260507095503 | 38 | 267 | 16.0 | 23.0 | 0.00 | 0.16 | 0.00 | 81 | 1009.3 |
| 20260507095003 | 38 | 267 | 16.0 | 23.0 | 0.00 | 0.17 | 0.00 | 81 | 1009.4 |
| 20260507094503 | 38 | 268 | 15.0 | 23.0 | 0.00 | 0.17 | 0.00 | 81 | 1009.4 |
| 20260507094433 | 38 | 268 | 15.0 | 23.0 | 0.00 | 0.17 | 0.00 | 81 | 1009.4 |
| 20260507093503 | 39 | 268 | 16.0 | 24.0 | 0.00 | 0.17 | 0.00 | 81 | 1009.5 |
| 20260507093003 | 39 | 267 | 16.0 | 24.0 | 0.00 | 0.18 | 0.00 | 81 | 1009.6 |
| 20260507092503 | 39 | 263 | 16.0 | 23.0 | 0.00 | 0.18 | 0.00 | 81 | 1009.7 |
| 20260507092003 | 39 | 263 | 16.0 | 23.0 | 0.00 | 0.18 | 0.00 | 81 | 1009.7 |
| 20260507091503 | 39 | 267 | 16.0 | 23.0 | 0.00 | 0.18 | 0.00 | 80 | 1009.7 |
| 20260507091003 | 38 | 270 | 14.0 | 19.0 | 0.00 | 0.18 | 0.00 | 80 | 1009.9 |
| 20260507090503 | 38 | 271 | 14.0 | 19.0 | 0.00 | 0.18 | 0.00 | 80 | 1010.0 |
| 20260507090004 | 38 | 270 | 15.0 | 19.0 | 0.00 | 0.18 | 0.00 | 80 | 1010.0 |
| 20260507085503 | 38 | 270 | 15.0 | 23.0 | 0.00 | 0.18 | 0.00 | 79 | 1010.0 |
| 20260507085003 | 38 | 270 | 15.0 | 23.0 | 0.00 | 0.18 | 0.00 | 79 | 1010.0 |
| 20260507084717 | 37 | 270 | 14.0 | 19.0 | 0.00 | 0.18 | 0.00 | 79 | 1010.0 |
| 20260507084433 | 37 | 270 | 13.0 | 17.0 | 0.00 | 0.18 | 0.00 | 79 | 1010.2 |
| 20260507083503 | 37 | 271 | 14.0 | 19.0 | 0.00 | 0.18 | 0.00 | 80 | 1010.3 |
| 20260507083218 | 37 | 271 | 14.0 | 19.0 | 0.00 | 0.18 | 0.00 | 80 | 1010.2 |
| 20260507082932 | 38 | 271 | 14.0 | 20.0 | 0.00 | 0.18 | 0.00 | 80 | 1010.4 |
| 20260507082003 | 38 | 270 | 15.0 | 20.0 | 0.00 | 0.18 | 0.00 | 79 | 1010.4 |
| 20260507081503 | 38 | 269 | 14.0 | 20.0 | 0.00 | 0.18 | 0.00 | 80 | 1010.5 |
| 20260507081218 | 38 | 269 | 14.0 | 20.0 | 0.00 | 0.18 | 0.00 | 79 | 1010.6 |
| 20260507080503 | 38 | 265 | 12.0 | 17.0 | 0.00 | 0.18 | 0.00 | 79 | 1010.8 |
| 20260507080218 | 38 | 264 | 12.0 | 17.0 | 0.00 | 0.18 | 0.00 | 80 | 1010.8 |
| 20260507075503 | 38 | 261 | 11.0 | 17.0 | 0.00 | 0.18 | 0.00 | 80 | 1010.8 |
| 20260507075003 | 38 | 258 | 12.0 | 16.0 | 0.00 | 0.18 | 0.00 | 80 | 1010.9 |
| 20260507074503 | 38 | 258 | 12.0 | 16.0 | 0.00 | 0.18 | 0.00 | 80 | 1011.0 |
| 20260507074003 | 38 | 259 | 11.0 | 16.0 | 0.00 | 0.18 | 0.00 | 80 | 1011.1 |
| 20260507073503 | 38 | 259 | 11.0 | 16.0 | 0.00 | 0.18 | 0.00 | 79 | 1011.2 |
| 20260507073003 | 38 | 261 | 11.0 | 15.0 | 0.00 | 0.18 | 0.00 | 79 | 1011.3 |
| 20260507072716 | 38 | 262 | 12.0 | 18.0 | 0.00 | 0.18 | 0.00 | 79 | 1011.3 |
| 20260507072003 | 38 | 266 | 13.0 | 18.0 | 0.00 | 0.18 | 0.00 | 78 | 1011.4 |
| 20260507071503 | 38 | 268 | 13.0 | 19.0 | 0.00 | 0.18 | 0.00 | 78 | 1011.4 |
| 20260507071003 | 38 | 270 | 13.0 | 19.0 | 0.00 | 0.18 | 0.00 | 77 | 1011.6 |
| 20260507070933 | 38 | 270 | 13.0 | 19.0 | 0.00 | 0.18 | 0.00 | 77 | 1011.6 |
| 20260507070005 | 38 | 266 | 11.0 | 16.0 | 0.00 | 0.18 | 0.00 | 77 | 1011.7 |
| 20260507065503 | 38 | 259 | 10.0 | 15.0 | 0.00 | 0.18 | 0.00 | 77 | 1011.7 |
| 20260507065217 | 38 | 257 | 10.0 | 15.0 | 0.00 | 0.18 | 0.00 | 77 | 1011.8 |
| 20260507064503 | 38 | 253 | 11.0 | 16.0 | 0.00 | 0.18 | 0.00 | 77 | 1011.8 |
| 20260507064003 | 38 | 258 | 10.0 | 14.0 | 0.00 | 0.18 | 0.00 | 77 | 1011.8 |
| 20260507063503 | 38 | 266 | 11.0 | 15.0 | 0.00 | 0.18 | 0.00 | 77 | 1011.9 |
| 20260507063003 | 38 | 271 | 11.0 | 15.0 | 0.00 | 0.18 | 0.00 | 77 | 1012.0 |
| 20260507062503 | 39 | 271 | 12.0 | 16.0 | 0.00 | 0.18 | 0.00 | 77 | 1012.2 |
| 20260507062432 | 39 | 271 | 12.0 | 16.0 | 0.00 | 0.18 | 0.00 | 77 | 1012.2 |
| 20260507061503 | 39 | 272 | 13.0 | 16.0 | 0.00 | 0.18 | 0.00 | 77 | 1012.3 |
| 20260507061217 | 39 | 272 | 13.0 | 16.0 | 0.00 | 0.18 | 0.00 | 77 | 1012.2 |
| 20260507060718 | 39 | 272 | 13.0 | 16.0 | 0.00 | 0.18 | 0.00 | 77 | 1012.4 |
| 20260507060003 | 39 | 272 | 12.0 | 16.0 | 0.00 | 0.18 | 0.00 | 77 | 1012.3 |
| 20260507055503 | 39 | 271 | 12.0 | 16.0 | 0.00 | 0.18 | 0.00 | 78 | 1012.3 |
| 20260507055003 | 39 | 270 | 11.0 | 16.0 | 0.00 | 0.18 | 0.00 | 78 | 1012.3 |
| 20260507054503 | 39 | 267 | 11.0 | 14.0 | 0.00 | 0.18 | 0.00 | 78 | 1012.3 |
| 20260507054432 | 39 | 267 | 11.0 | 14.0 | 0.00 | 0.18 | 0.00 | 78 | 1012.3 |
| 20260507053933 | 40 | 259 | 10.0 | 13.0 | 0.00 | 0.18 | 0.00 | 78 | 1012.4 |
| 20260507053003 | 40 | 251 | 11.0 | 15.0 | 0.00 | 0.18 | 0.00 | 77 | 1012.4 |
| 20260507052933 | 40 | 251 | 11.0 | 15.0 | 0.00 | 0.18 | 0.00 | 78 | 1012.4 |
| 20260507052003 | 40 | 245 | 11.0 | 15.0 | 0.00 | 0.18 | 0.00 | 78 | 1012.3 |
| 20260507051503 | 40 | 247 | 10.0 | 14.0 | 0.00 | 0.18 | 0.00 | 78 | 1012.4 |
| 20260507051003 | 40 | 251 | 10.0 | 14.0 | 0.00 | 0.18 | 0.00 | 78 | 1012.5 |
| 20260507050503 | 40 | 253 | 11.0 | 14.0 | 0.00 | 0.18 | 0.00 | 78 | 1012.5 |
| 20260507050003 | 40 | 255 | 10.0 | 14.0 | 0.00 | 0.18 | 0.00 | 77 | 1012.6 |
| 20260507045503 | 40 | 255 | 10.0 | 13.0 | 0.00 | 0.18 | 0.18 | 77 | 1012.7 |
| 20260507045216 | 40 | 253 | 10.0 | 13.0 | 0.00 | 0.18 | 0.18 | 78 | 1012.7 |
| 20260507044503 | 40 | 246 | 12.0 | 14.0 | 0.00 | 0.18 | 0.18 | 78 | 1012.8 |
| 20260507044431 | 40 | 245 | 12.0 | 14.0 | 0.00 | 0.18 | 0.18 | 78 | 1012.8 |
| 20260507043932 | 40 | 241 | 11.0 | 14.0 | 0.00 | 0.18 | 0.18 | 78 | 1012.8 |
| 20260507043003 | 40 | 238 | 10.0 | 14.0 | 0.00 | 0.18 | 0.18 | 79 | 1012.9 |
| 20260507042717 | 40 | 237 | 10.0 | 14.0 | 0.00 | 0.18 | 0.18 | 79 | 1013.0 |
| 20260507042003 | 40 | 235 | 8.0 | 12.0 | 0.00 | 0.18 | 0.18 | 80 | 1013.0 |
| 20260507041932 | 40 | 236 | 8.0 | 12.0 | 0.00 | 0.18 | 0.18 | 80 | 1013.0 |
| 20260507041218 | 41 | 242 | 9.0 | 12.0 | 0.00 | 0.18 | 0.18 | 80 | 1013.0 |
| 20260507040503 | 41 | 243 | 9.0 | 11.0 | 0.00 | 0.18 | 0.18 | 80 | 1012.9 |
| 20260507040218 | 41 | 244 | 9.0 | 12.0 | 0.00 | 0.18 | 0.18 | 79 | 1013.0 |
| 20260507035503 | 41 | 246 | 8.0 | 12.0 | 0.00 | 0.18 | 0.18 | 79 | 1013.0 |
| 20260507035003 | 41 | 243 | 8.0 | 10.0 | 0.00 | 0.18 | 0.18 | 80 | 1013.0 |
| 20260507034932 | 41 | 242 | 8.0 | 10.0 | 0.00 | 0.18 | 0.18 | 80 | 1013.0 |
| 20260507034433 | 41 | 237 | 8.0 | 11.0 | 0.00 | 0.18 | 0.18 | 80 | 1013.0 |
| 20260507033503 | 41 | 236 | 9.0 | 11.0 | 0.00 | 0.18 | 0.18 | 80 | 1013.0 |
| 20260507033003 | 41 | 238 | 8.0 | 11.0 | 0.00 | 0.18 | 0.18 | 80 | 1013.0 |
| 20260507032503 | 41 | 241 | 8.0 | 10.0 | 0.00 | 0.18 | 0.18 | 80 | 1013.0 |
| 20260507032003 | 41 | 246 | 8.0 | 10.0 | 0.00 | 0.18 | 0.18 | 80 | 1013.0 |
| 20260507031503 | 41 | 249 | 8.0 | 11.0 | 0.00 | 0.18 | 0.18 | 80 | 1013.0 |
| 20260507031003 | 41 | 246 | 8.0 | 11.0 | 0.00 | 0.18 | 0.18 | 80 | 1013.0 |
| 20260507030503 | 42 | 239 | 8.0 | 11.0 | 0.00 | 0.18 | 0.18 | 81 | 1013.0 |
| 20260507030433 | 42 | 239 | 8.0 | 11.0 | 0.00 | 0.18 | 0.18 | 81 | 1013.0 |
| 20260507025717 | 42 | 235 | 8.0 | 11.0 | 0.00 | 0.18 | 0.18 | 80 | 1013.0 |
| 20260507025003 | 42 | 241 | 8.0 | 11.0 | 0.00 | 0.18 | 0.18 | 81 | 1013.0 |
| 20260507024717 | 42 | 243 | 8.0 | 11.0 | 0.00 | 0.18 | 0.18 | 81 | 1013.0 |
| 20260507024003 | 42 | 244 | 7.0 | 10.0 | 0.00 | 0.18 | 0.18 | 81 | 1012.8 |
| 20260507023716 | 42 | 242 | 7.0 | 10.0 | 0.00 | 0.18 | 0.18 | 80 | 1012.8 |
| 20260507023003 | 43 | 240 | 6.0 | 8.0 | 0.00 | 0.18 | 0.18 | 80 | 1012.9 |
| 20260507022716 | 43 | 242 | 6.0 | 8.0 | 0.00 | 0.18 | 0.18 | 80 | 1012.8 |
| 20260507022433 | 43 | 248 | 6.0 | 9.0 | 0.00 | 0.18 | 0.18 | 80 | 1012.8 |
| 20260507021503 | 44 | 252 | 7.0 | 9.0 | 0.00 | 0.18 | 0.18 | 80 | 1012.8 |
| 20260507021003 | 44 | 255 | 7.0 | 9.0 | 0.00 | 0.18 | 0.18 | 80 | 1012.8 |
| 20260507020503 | 44 | 260 | 7.0 | 9.0 | 0.00 | 0.18 | 0.18 | 79 | 1012.8 |
| 20260507020003 | 44 | 264 | 7.0 | 11.0 | 0.00 | 0.18 | 0.18 | 79 | 1012.8 |
| 20260507015933 | 44 | 263 | 7.0 | 11.0 | 0.00 | 0.18 | 0.18 | 79 | 1012.8 |
| 20260507015003 | 45 | 269 | 8.0 | 11.0 | 0.00 | 0.18 | 0.18 | 78 | 1012.7 |
| 20260507014503 | 45 | 273 | 7.0 | 11.0 | 0.00 | 0.18 | 0.18 | 77 | 1012.8 |
| 20260507014003 | 45 | 273 | 8.0 | 11.0 | 0.00 | 0.18 | 0.18 | 77 | 1012.8 |
| 20260507013503 | 46 | 273 | 8.0 | 11.0 | 0.00 | 0.18 | 0.18 | 77 | 1012.8 |
| 20260507013003 | 46 | 275 | 8.0 | 11.0 | 0.00 | 0.18 | 0.18 | 77 | 1012.7 |
| 20260507012718 | 46 | 275 | 8.0 | 11.0 | 0.00 | 0.18 | 0.18 | 77 | 1012.7 |
| 20260507012003 | 46 | 276 | 8.0 | 11.0 | 0.00 | 0.18 | 0.18 | 76 | 1012.8 |
| 20260507011933 | 46 | 277 | 8.0 | 11.0 | 0.00 | 0.18 | 0.18 | 76 | 1012.8 |
| 20260507011003 | 46 | 276 | 10.0 | 12.0 | 0.00 | 0.18 | 0.18 | 77 | 1012.8 |
| 20260507010933 | 46 | 276 | 10.0 | 12.0 | 0.00 | 0.18 | 0.18 | 77 | 1012.8 |
| 20260507010003 | 46 | 277 | 10.0 | 13.0 | 0.00 | 0.18 | 0.18 | 76 | 1012.7 |
| 20260507005503 | 46 | 274 | 11.0 | 13.0 | 0.00 | 0.18 | 0.18 | 76 | 1012.6 |
| 20260507005003 | 46 | 272 | 11.0 | 14.0 | 0.00 | 0.18 | 0.18 | 76 | 1012.6 |
| 20260507004718 | 46 | 273 | 11.0 | 14.0 | 0.00 | 0.18 | 0.18 | 76 | 1012.5 |
| 20260507004003 | 46 | 276 | 10.0 | 14.0 | 0.00 | 0.18 | 0.18 | 77 | 1012.5 |
| 20260507003503 | 47 | 279 | 9.0 | 13.0 | 0.00 | 0.18 | 0.18 | 77 | 1012.5 |
| 20260507003432 | 47 | 279 | 9.0 | 13.0 | 0.00 | 0.18 | 0.18 | 77 | 1012.5 |
| 20260507002718 | 47 | 277 | 8.0 | 11.0 | 0.00 | 0.18 | 0.18 | 78 | 1012.6 |
| 20260507002003 | 46 | 289 | 9.0 | 12.0 | 0.00 | 0.18 | 0.18 | 78 | 1012.8 |
| 20260507001503 | 46 | 293 | 9.0 | 13.0 | 0.00 | 0.18 | 0.18 | 78 | 1012.8 |
| 20260507001432 | 46 | 293 | 9.0 | 13.0 | 0.00 | 0.18 | 0.18 | 78 | 1012.8 |
| 20260507000503 | 46 | 296 | 8.0 | 12.0 | 0.00 | 0.18 | 0.18 | 79 | 1012.7 |
| 20260507000003 | 46 | 297 | 10.0 | 12.0 | 0.00 | 0.18 | 0.18 | 78 | 1012.8 |
| 20260506235503 | 46 | 280 | 10.0 | 15.0 | 0.00 | 0.18 | 0.18 | 77 | 1012.8 |
| 20260506235216 | 46 | 274 | 10.0 | 16.0 | 0.00 | 0.18 | 0.18 | 77 | 1012.8 |
| 20260506234503 | 46 | 281 | 12.0 | 16.0 | 0.00 | 0.19 | 0.18 | 76 | 1012.7 |
| 20260506234216 | 46 | 286 | 12.0 | 16.0 | 0.00 | 0.19 | 0.18 | 76 | 1012.7 |
| 20260506233503 | 46 | 293 | 12.0 | 16.0 | 0.00 | 0.19 | 0.18 | 75 | 1012.7 |
| 20260506233003 | 47 | 288 | 11.0 | 16.0 | 0.00 | 0.19 | 0.18 | 75 | 1012.7 |
| 20260506232933 | 47 | 287 | 11.0 | 16.0 | 0.00 | 0.19 | 0.18 | 76 | 1012.7 |
| 20260506232433 | 47 | 275 | 11.0 | 16.0 | 0.00 | 0.19 | 0.18 | 76 | 1012.7 |
| 20260506231503 | 47 | 277 | 13.0 | 18.0 | 0.00 | 0.19 | 0.18 | 76 | 1012.7 |
| 20260506231003 | 47 | 276 | 13.0 | 18.0 | 0.00 | 0.19 | 0.18 | 75 | 1012.8 |
| 20260506230503 | 47 | 281 | 11.0 | 16.0 | 0.00 | 0.19 | 0.18 | 75 | 1012.7 |
| 20260506230003 | 47 | 275 | 12.0 | 18.0 | 0.00 | 0.19 | 0.18 | 75 | 1012.7 |
| 20260506225717 | 47 | 271 | 12.0 | 18.0 | 0.00 | 0.19 | 0.18 | 74 | 1012.7 |
| 20260506225003 | 47 | 279 | 12.0 | 17.0 | 0.00 | 0.19 | 0.18 | 74 | 1012.7 |
| 20260506224932 | 47 | 279 | 12.0 | 17.0 | 0.00 | 0.19 | 0.18 | 74 | 1012.7 |
| 20260506224003 | 47 | 274 | 12.0 | 17.0 | 0.00 | 0.19 | 0.18 | 74 | 1012.7 |
| 20260506223717 | 47 | 277 | 13.0 | 17.0 | 0.00 | 0.19 | 0.18 | 74 | 1012.7 |
| 20260506223003 | 47 | 285 | 14.0 | 19.0 | 0.00 | 0.19 | 0.18 | 74 | 1012.7 |
| 20260506222932 | 47 | 285 | 14.0 | 19.0 | 0.00 | 0.19 | 0.18 | 74 | 1012.7 |
| 20260506222003 | 47 | 267 | 13.0 | 19.0 | 0.00 | 0.19 | 0.18 | 75 | 1012.6 |
| 20260506221504 | 48 | 265 | 10.0 | 18.0 | 0.00 | 0.19 | 0.18 | 74 | 1012.8 |
| 20260506221003 | 48 | 275 | 8.0 | 13.0 | 0.00 | 0.19 | 0.18 | 71 | 1012.7 |
| 20260506220503 | 49 | 281 | 8.0 | 12.0 | 0.00 | 0.19 | 0.18 | 71 | 1012.7 |
| 20260506220003 | 49 | 285 | 8.0 | 12.0 | 0.00 | 0.19 | 0.18 | 69 | 1012.7 |
| 20260506215503 | 49 | 294 | 8.0 | 11.0 | 0.00 | 0.19 | 0.18 | 71 | 1012.7 |
| 20260506215003 | 49 | 298 | 8.0 | 11.0 | 0.00 | 0.20 | 0.18 | 70 | 1012.9 |
| 20260506214503 | 49 | 282 | 6.0 | 10.0 | 0.00 | 0.20 | 0.18 | 69 | 1012.9 |
| 20260506214218 | 49 | 276 | 6.0 | 10.0 | 0.00 | 0.20 | 0.18 | 71 | 1012.9 |
| 20260506213503 | 49 | 287 | 6.0 | 11.0 | 0.00 | 0.20 | 0.18 | 72 | 1012.9 |
| 20260506213003 | 49 | 280 | 7.0 | 12.0 | 0.00 | 0.20 | 0.18 | 73 | 1013.1 |
| 20260506212932 | 49 | 282 | 7.0 | 12.0 | 0.00 | 0.20 | 0.18 | 72 | 1013.1 |
| 20260506212003 | 48 | 282 | 7.0 | 12.0 | 0.00 | 0.20 | 0.18 | 73 | 1013.1 |
| 20260506211717 | 48 | 276 | 7.0 | 12.0 | 0.00 | 0.20 | 0.18 | 74 | 1013.2 |
| 20260506211433 | 48 | 265 | 7.0 | 12.0 | 0.00 | 0.20 | 0.18 | 74 | 1013.3 |
| 20260506210503 | 48 | 269 | 7.0 | 11.0 | 0.00 | 0.20 | 0.18 | 73 | 1013.3 |
| 20260506210003 | 48 | 260 | 7.0 | 11.0 | 0.00 | 0.20 | 0.18 | 73 | 1013.3 |
| 20260506205503 | 48 | 257 | 6.0 | 12.0 | 0.00 | 0.21 | 0.18 | 74 | 1013.4 |
| 20260506205003 | 48 | 275 | 6.0 | 12.0 | 0.00 | 0.21 | 0.18 | 74 | 1013.4 |
| 20260506204503 | 48 | 288 | 5.0 | 10.0 | 0.00 | 0.21 | 0.18 | 74 | 1013.5 |
| 20260506204432 | 48 | 288 | 5.0 | 10.0 | 0.00 | 0.21 | 0.18 | 74 | 1013.5 |
| 20260506203503 | 47 | 297 | 4.0 | 7.0 | 0.00 | 0.21 | 0.18 | 76 | 1013.6 |
| 20260506203003 | 47 | 290 | 4.0 | 7.0 | 0.00 | 0.21 | 0.18 | 77 | 1013.6 |
| 20260506202933 | 47 | 287 | 4.0 | 7.0 | 0.00 | 0.21 | 0.18 | 77 | 1013.6 |
| 20260506202003 | 46 | 277 | 4.0 | 7.0 | 0.00 | 0.21 | 0.18 | 78 | 1013.7 |
| 20260506201503 | 46 | 296 | 4.0 | 7.0 | 0.00 | 0.21 | 0.18 | 79 | 1013.7 |
| 20260506201432 | 46 | 297 | 4.0 | 7.0 | 0.00 | 0.21 | 0.18 | 79 | 1013.7 |
| 20260506200503 | 46 | 302 | 4.0 | 7.0 | 0.00 | 0.21 | 0.18 | 79 | 1013.6 |
| 20260506200003 | 45 | 315 | 4.0 | 7.0 | 0.00 | 0.21 | 0.18 | 79 | 1013.7 |
| 20260506195503 | 45 | 306 | 3.0 | 7.0 | 0.00 | 0.21 | 0.18 | 79 | 1013.7 |
| 20260506195003 | 46 | 304 | 3.0 | 5.0 | 0.00 | 0.21 | 0.18 | 79 | 1013.9 |
| 20260506194933 | 46 | 304 | 3.0 | 5.0 | 0.00 | 0.21 | 0.18 | 79 | 1013.9 |
| 20260506194003 | 45 | 335 | 2.0 | 5.0 | 0.00 | 0.21 | 0.18 | 78 | 1013.9 |
| 20260506193503 | 45 | 12 | 1.0 | 4.0 | 0.00 | 0.21 | 0.18 | 78 | 1014.0 |
| 20260506193432 | 45 | 12 | 1.0 | 4.0 | 0.00 | 0.21 | 0.18 | 78 | 1013.9 |
| 20260506192718 | 45 | 12 | 1.0 | 4.0 | 0.00 | 0.21 | 0.18 | 78 | 1014.0 |
| 20260506192003 | 45 | 16 | 2.0 | 5.0 | 0.00 | 0.21 | 0.18 | 79 | 1014.0 |
| 20260506191503 | 45 | 29 | 3.0 | 5.0 | 0.00 | 0.21 | 0.18 | 79 | 1014.0 |
| 20260506191432 | 45 | 28 | 3.0 | 5.0 | 0.00 | 0.21 | 0.18 | 80 | 1014.0 |
| 20260506190503 | 44 | 360 | 1.0 | 4.0 | 0.00 | 0.21 | 0.18 | 80 | 1014.0 |
| 20260506190003 | 44 | 360 | 2.0 | 4.0 | 0.00 | 0.21 | 0.18 | 80 | 1014.1 |
| 20260506185718 | 44 | 360 | 2.0 | 4.0 | 0.00 | 0.21 | 0.18 | 81 | 1014.1 |
| 20260506185003 | 44 | 360 | 2.0 | 6.0 | 0.00 | 0.21 | 0.18 | 81 | 1014.2 |
| 20260506184503 | 44 | 360 | 2.0 | 6.0 | 0.00 | 0.21 | 0.18 | 81 | 1014.2 |
| 20260506184432 | 44 | 360 | 2.0 | 6.0 | 0.00 | 0.21 | 0.18 | 81 | 1014.2 |
| 20260506183503 | 43 | 80 | 1.0 | 3.0 | 0.00 | 0.21 | 0.18 | 81 | 1014.3 |
| 20260506183003 | 43 | 80 | 1.0 | 3.0 | 0.00 | 0.22 | 0.18 | 81 | 1014.2 |
| 20260506182503 | 43 | 80 | 1.0 | 4.0 | 0.00 | 0.22 | 0.18 | 80 | 1014.2 |
| 20260506182003 | 43 | 80 | 2.0 | 4.0 | 0.00 | 0.22 | 0.18 | 80 | 1014.3 |
| 20260506181503 | 43 | 100 | 2.0 | 5.0 | 0.00 | 0.22 | 0.18 | 79 | 1014.3 |
| 20260506181218 | 43 | 115 | 3.0 | 6.0 | 0.00 | 0.22 | 0.18 | 79 | 1014.3 |
| 20260506180503 | 42 | 123 | 3.0 | 6.0 | 0.00 | 0.22 | 0.18 | 79 | 1014.4 |
| 20260506180004 | 42 | 119 | 2.0 | 6.0 | 0.00 | 0.22 | 0.18 | 78 | 1014.4 |
| 20260506175932 | 42 | 118 | 2.0 | 6.0 | 0.00 | 0.22 | 0.18 | 78 | 1014.4 |
| 20260506175003 | 42 | 101 | 3.0 | 7.0 | 0.00 | 0.22 | 0.18 | 75 | 1014.5 |
| 20260506174503 | 42 | 102 | 3.0 | 7.0 | 0.00 | 0.22 | 0.18 | 76 | 1014.6 |
| 20260506174433 | 42 | 104 | 3.0 | 7.0 | 0.00 | 0.22 | 0.18 | 76 | 1014.5 |
| 20260506173503 | 42 | 101 | 3.0 | 7.0 | 0.00 | 0.22 | 0.18 | 74 | 1014.5 |
| 20260506173433 | 42 | 98 | 3.0 | 8.0 | 0.00 | 0.22 | 0.18 | 74 | 1014.5 |
| 20260506172717 | 42 | 73 | 3.0 | 8.0 | 0.00 | 0.22 | 0.18 | 71 | 1014.5 |
| 20260506172003 | 42 | 61 | 3.0 | 7.0 | 0.00 | 0.22 | 0.18 | 70 | 1014.5 |
| 20260506171503 | 43 | 57 | 4.0 | 7.0 | 0.00 | 0.22 | 0.18 | 66 | 1014.5 |
| 20260506171003 | 42 | 63 | 4.0 | 7.0 | 0.00 | 0.22 | 0.18 | 65 | 1014.5 |
| 20260506170503 | 42 | 75 | 3.0 | 7.0 | 0.00 | 0.22 | 0.18 | 65 | 1014.5 |
| 20260506170433 | 42 | 74 | 3.0 | 7.0 | 0.00 | 0.22 | 0.18 | 65 | 1014.5 |
| 20260506165932 | 42 | 62 | 3.0 | 5.0 | 0.00 | 0.22 | 0.18 | 62 | 1014.5 |
| 20260506165003 | 42 | 50 | 3.0 | 6.0 | 0.00 | 0.22 | 0.18 | 60 | 1014.6 |
| 20260506164503 | 42 | 64 | 3.0 | 6.0 | 0.00 | 0.22 | 0.18 | 58 | 1014.5 |
| 20260506164003 | 42 | 83 | 2.0 | 5.0 | 0.00 | 0.22 | 0.18 | 57 | 1014.5 |
| 20260506163503 | 41 | 70 | 2.0 | 5.0 | 0.00 | 0.22 | 0.18 | 56 | 1014.4 |
| 20260506163003 | 41 | 67 | 3.0 | 5.0 | 0.00 | 0.22 | 0.18 | 55 | 1014.4 |
| 20260506162717 | 41 | 77 | 2.0 | 5.0 | 0.00 | 0.22 | 0.18 | 54 | 1014.3 |
| 20260506162218 | 42 | 101 | 3.0 | 6.0 | 0.00 | 0.22 | 0.18 | 52 | 1014.2 |
| 20260506161503 | 41 | 110 | 3.0 | 7.0 | 0.00 | 0.22 | 0.18 | 51 | 1013.9 |
| 20260506161218 | 41 | 103 | 3.0 | 7.0 | 0.00 | 0.22 | 0.18 | 51 | 1013.9 |
| 20260506160503 | 41 | 104 | 4.0 | 7.0 | 0.00 | 0.22 | 0.18 | 49 | 1014.0 |
| 20260506160003 | 41 | 127 | 4.0 | 8.0 | 0.00 | 0.22 | 0.18 | 50 | 1014.0 |
| 20260506155932 | 41 | 129 | 4.0 | 8.0 | 0.00 | 0.22 | 0.18 | 50 | 1013.9 |
| 20260506155003 | 41 | 158 | 2.0 | 7.0 | 0.00 | 0.22 | 0.18 | 48 | 1013.7 |
| 20260506154932 | 41 | 159 | 2.0 | 7.0 | 0.00 | 0.22 | 0.18 | 48 | 1013.7 |
| 20260506154003 | 41 | 187 | 4.0 | 8.0 | 0.00 | 0.22 | 0.18 | 47 | 1013.7 |
| 20260506153503 | 40 | 211 | 3.0 | 8.0 | 0.00 | 0.22 | 0.18 | 48 | 1013.7 |
| 20260506153003 | 40 | 224 | 3.0 | 8.0 | 0.00 | 0.22 | 0.18 | 47 | 1013.7 |
| 20260506152716 | 40 | 224 | 2.0 | 8.0 | 0.00 | 0.22 | 0.18 | 48 | 1013.7 |
| 20260506152003 | 40 | 237 | 4.0 | 8.0 | 0.00 | 0.22 | 0.18 | 47 | 1013.7 |
| 20260506151503 | 40 | 249 | 5.0 | 8.0 | 0.00 | 0.22 | 0.18 | 47 | 1013.6 |
| 20260506151432 | 40 | 249 | 5.0 | 8.0 | 0.00 | 0.22 | 0.18 | 47 | 1013.6 |
| 20260506150503 | 39 | 245 | 7.0 | 9.0 | 0.01 | 0.22 | 0.18 | 47 | 1013.6 |
| 20260506150003 | 39 | 244 | 7.0 | 10.0 | 0.01 | 0.23 | 0.18 | 47 | 1013.6 |
| 20260506145718 | 39 | 242 | 6.0 | 10.0 | 0.01 | 0.23 | 0.18 | 47 | 1013.4 |
| 20260506145003 | 39 | 247 | 5.0 | 8.0 | 0.01 | 0.23 | 0.18 | 47 | 1013.5 |
| 20260506144718 | 39 | 254 | 5.0 | 8.0 | 0.01 | 0.23 | 0.18 | 47 | 1013.6 |
| 20260506144003 | 38 | 272 | 5.0 | 8.0 | 0.02 | 0.23 | 0.18 | 47 | 1013.6 |
| 20260506143503 | 38 | 284 | 4.0 | 7.0 | 0.02 | 0.23 | 0.18 | 48 | 1013.6 |
| 20260506143217 | 38 | 309 | 3.0 | 6.0 | 0.02 | 0.23 | 0.18 | 48 | 1013.6 |
| 20260506142718 | 37 | 21 | 2.0 | 6.0 | 0.02 | 0.23 | 0.18 | 48 | 1013.7 |
| 20260506142003 | 37 | 28 | 2.0 | 3.0 | 0.03 | 0.23 | 0.18 | 48 | 1013.8 |
| 20260506141503 | 37 | 28 | 1.0 | 3.0 | 0.03 | 0.23 | 0.18 | 48 | 1013.9 |
| 20260506141217 | 37 | 28 | 1.0 | 3.0 | 0.03 | 0.23 | 0.18 | 49 | 1013.9 |
| 20260506140718 | 37 | 28 | 0.0 | 2.0 | 0.02 | 0.22 | 0.17 | 49 | 1013.9 |
| 20260506140003 | 37 | 28 | 0.0 | 1.0 | 0.02 | 0.22 | 0.17 | 48 | 1013.8 |
| 20260506135933 | 37 | 28 | 0.0 | 1.0 | 0.02 | 0.22 | 0.17 | 48 | 1013.8 |
| 20260506135217 | 37 | 28 | 0.0 | 2.0 | 0.03 | 0.22 | 0.17 | 49 | 1013.7 |
| 20260506134718 | 36 | 28 | 0.0 | 2.0 | 0.03 | 0.22 | 0.17 | 49 | 1013.6 |
| 20260506134003 | 36 | 28 | 1.0 | 3.0 | 0.02 | 0.21 | 0.16 | 49 | 1013.6 |
| 20260506133503 | 36 | 28 | 0.0 | 3.0 | 0.03 | 0.21 | 0.16 | 49 | 1013.6 |
| 20260506133003 | 36 | 28 | 1.0 | 3.0 | 0.03 | 0.21 | 0.16 | 49 | 1013.6 |
| 20260506132718 | 36 | 28 | 1.0 | 3.0 | 0.03 | 0.21 | 0.16 | 49 | 1013.6 |
| 20260506132432 | 36 | 28 | 2.0 | 3.0 | 0.03 | 0.20 | 0.15 | 49 | 1013.6 |
| 20260506131503 | 36 | 28 | 2.0 | 3.0 | 0.03 | 0.20 | 0.15 | 49 | 1013.5 |
| 20260506131216 | 36 | 28 | 1.0 | 3.0 | 0.03 | 0.20 | 0.15 | 49 | 1013.4 |
| 20260506130503 | 36 | 28 | 1.0 | 3.0 | 0.04 | 0.20 | 0.15 | 49 | 1013.3 |
| 20260506130003 | 36 | 28 | 2.0 | 3.0 | 0.04 | 0.20 | 0.15 | 50 | 1013.3 |
| 20260506125933 | 36 | 28 | 2.0 | 3.0 | 0.04 | 0.20 | 0.15 | 50 | 1013.3 |
| 20260506125003 | 36 | 28 | 2.0 | 4.0 | 0.04 | 0.19 | 0.14 | 50 | 1013.2 |
| 20260506124932 | 36 | 28 | 2.0 | 4.0 | 0.04 | 0.19 | 0.14 | 50 | 1013.1 |